Chicopee, MA

6:37 AM EST on December 13, 2017 (GMT -0500)
Westover Air Reserve Base / Metropolitan Airport

Weather History for KCEF - May, 2014

Change the Weather History Date:

Friday, May 9, 2014

  Actual Average Record
Temperature  
Mean Temperature 56 °F -  
Max Temperature 59 °F 66 °F 93 °F (2000)
Min Temperature 53 °F 44 °F 34 °F (2017)
Degree Days  
Heating Degree Days 9    
Growing Degree Days 6 (Base 50)    
Moisture  
Dew Point 57 °F    
Average Humidity 99    
Maximum Humidity 100    
Minimum Humidity 94    
Precipitation  
Precipitation 0.09 in - - ()
Sea Level Pressure  
Sea Level Pressure 30.15 in    
Wind  
Wind Speed 5 mph (SSE)    
Max Wind Speed 13 mph    
Max Gust Speed 17 mph    
Visibility 8 miles    
Events Rain    
Averages and records for this station are not official NWS values.
T = Trace of Precipitation, MM = Missing Value Source: NWS Daily Summary

Daily Weather History Graph

Daily Weather History Graph

Search for Another Location

Airport or City:

Trip Planner

Search our weather history database for the weather conditions in past years. The results will help you decide how hot, cold, wet, or windy it might be!

Date:

Astronomy

May. 09, 2014 Rise Set
Actual Time 5:35 AM EDT 7:58 PM EDT
Civil Twilight 5:04 AM EDT 8:29 PM EDT
Nautical Twilight 4:25 AM EDT 9:08 PM EDT
Astronomical Twilight 3:42 AM EDT 9:52 PM EDT
Moon 2:47 PM EDT (5/9) 2:42 AM EDT (5/9)
Length of Visible Light 15h 25m
Length of Day
14h 22m
Waxing Gibbous, 73% of the Moon is Illuminated
May 9
Waxing Gibbous
May 14
Full
May 21
Last Quarter
May 28
New
Jun 5
First Quarter

Hourly Weather History & Observations

Time (EDT) Temp. Dew Point Humidity Pressure Visibility Wind Dir Wind Speed Gust Speed Precip Events Conditions
12:24 AM 57.2 °F 55.4 °F 94% 30.18 in 10.0 mi SSE 4.6 mph - N/A   Overcast
12:58 AM 56.1 °F 55.8 °F 99% 30.18 in 10.0 mi South 6.9 mph - N/A   Overcast
1:07 AM 55.4 °F 55.4 °F 100% 30.16 in 10.0 mi South 5.8 mph - N/A   Overcast
1:32 AM 55.4 °F 55.4 °F 100% 30.15 in 10.0 mi SSW 5.8 mph - N/A   Overcast
1:41 AM 55.4 °F 55.4 °F 100% 30.14 in 10.0 mi South 9.2 mph - N/A   Overcast
1:58 AM 55.8 °F 55.4 °F 99% 30.18 in 10.0 mi SW 10.4 mph - N/A   Overcast
2:17 AM 55.4 °F 55.4 °F 100% 30.16 in 10.0 mi SSW 8.1 mph - N/A   Overcast
2:33 AM 55.4 °F 55.4 °F 100% 30.17 in 10.0 mi SSW 9.2 mph - N/A   Overcast
2:37 AM 55.4 °F 55.4 °F 100% 30.17 in 10.0 mi SSW 8.1 mph - N/A   Overcast
2:51 AM 55.4 °F 55.4 °F 100% 30.17 in 10.0 mi SW 6.9 mph - N/A   Light Drizzle
2:53 AM 55.4 °F 55.4 °F 100% 30.16 in 10.0 mi SW 8.1 mph - N/A   Light Drizzle
2:58 AM 55.4 °F 55.2 °F 99% 30.18 in 10.0 mi SSW 6.9 mph - 0.00 in   Light Drizzle
3:02 AM 55.4 °F 55.4 °F 100% 30.15 in 9.0 mi South 8.1 mph - N/A Rain Light Rain
3:33 AM 55.4 °F 53.6 °F 94% 30.15 in 10.0 mi SSW 4.6 mph - N/A   Light Drizzle
3:34 AM 55.4 °F 53.6 °F 94% 30.15 in 10.0 mi SSW 4.6 mph - N/A   Overcast
3:45 AM 55.4 °F 53.6 °F 94% 30.16 in 10.0 mi SW 2.3 mph - N/A   Overcast
3:58 AM 54.7 °F 54.3 °F 99% 30.17 in 10.0 mi Calm Calm - 0.00 in   Overcast
4:23 AM 55.4 °F 55.4 °F 100% 30.15 in 10.0 mi Calm Calm - N/A   Overcast
4:39 AM 53.6 °F 53.6 °F 100% 30.15 in 10.0 mi ENE 2.3 mph - N/A   Overcast
4:46 AM 55.4 °F 55.4 °F 100% 30.15 in 10.0 mi NE 1.2 mph - N/A   Overcast
4:58 AM 54.7 °F 54.7 °F 100% 30.17 in 9.0 mi East 2.3 mph - N/A   Overcast
5:54 AM 55.4 °F 55.4 °F 100% 30.19 in 8.0 mi NNW 4.6 mph - N/A   Overcast
5:55 AM 55.4 °F 55.4 °F 100% 30.19 in 8.0 mi NNW 3.5 mph - N/A   Overcast
5:58 AM 54.9 °F 54.9 °F 100% 30.19 in 7.0 mi North 3.5 mph - N/A   Overcast
6:02 AM 55.4 °F 55.4 °F 100% 30.19 in 6.0 mi North 3.5 mph - N/A Rain Light Rain
6:10 AM 55.4 °F 55.4 °F 100% 30.18 in 3.0 mi NE 3.5 mph - N/A Rain Light Rain
6:11 AM 55.4 °F 55.4 °F 100% 30.18 in 2.5 mi NE 3.5 mph - N/A Rain Light Rain
6:14 AM 55.4 °F 55.4 °F 100% 30.18 in 2.0 mi ENE 5.8 mph - N/A Rain Light Rain
6:18 AM 55.4 °F 55.4 °F 100% 30.18 in 2.5 mi Variable 2.3 mph - N/A Rain Light Rain
6:23 AM 55.4 °F 55.4 °F 100% 30.18 in 3.0 mi ENE 2.3 mph - N/A Rain Light Rain
6:45 AM 55.4 °F 55.4 °F 100% 30.17 in 4.0 mi SE 2.3 mph - N/A Rain Light Rain
6:58 AM 55.4 °F 55.4 °F 100% 30.20 in 4.0 mi Calm Calm - 0.08 in Rain Light Rain
7:38 AM 55.4 °F 55.4 °F 100% 30.17 in 6.0 mi East 2.3 mph - N/A   Overcast
7:58 AM 55.8 °F 55.8 °F 100% 30.21 in 6.0 mi North 2.3 mph - 0.00 in   Overcast
8:58 AM 56.1 °F 56.1 °F 100% 30.22 in 5.0 mi Calm Calm - N/A   Overcast
9:58 AM 57.0 °F 57.0 °F 100% 30.22 in 6.0 mi East 4.6 mph - N/A   Overcast
10:58 AM 57.9 °F 57.7 °F 99% 30.22 in 6.0 mi East 4.6 mph - N/A   Overcast
11:58 AM 59.0 °F 59.0 °F 100% 30.20 in 7.0 mi SSE 3.5 mph - N/A   Overcast
12:44 PM 59.0 °F 59.0 °F 100% 30.18 in 3.0 mi SSE 3.5 mph - N/A   Light Drizzle
12:58 PM 59.0 °F 58.6 °F 99% 30.19 in 4.0 mi SSE 5.8 mph - 0.00 in   Overcast
1:31 PM 59.0 °F 59.0 °F 100% 30.17 in 4.0 mi SSE 5.8 mph - N/A   Light Drizzle
1:58 PM 58.5 °F 58.1 °F 99% 30.19 in 2.5 mi SSE 8.1 mph - 0.00 in   Light Drizzle
2:51 PM 59.0 °F 59.0 °F 100% 30.16 in 3.0 mi SSE 8.1 mph - N/A   Overcast
2:58 PM 58.1 °F 58.1 °F 100% 30.17 in 3.0 mi SSE 6.9 mph - 0.01 in   Overcast
3:30 PM 59.0 °F 59.0 °F 100% 30.14 in 3.0 mi SSE 6.9 mph - N/A   Overcast
3:47 PM 59.0 °F 59.0 °F 100% 30.14 in 5.0 mi SSE 6.9 mph - N/A   Overcast
3:51 PM 59.0 °F 59.0 °F 100% 30.14 in 10.0 mi South 5.8 mph - N/A   Overcast
3:58 PM 59.4 °F 59.4 °F 100% 30.15 in 10.0 mi SSE 10.4 mph - N/A   Overcast
3:59 PM 59.0 °F 59.0 °F 100% 30.13 in 10.0 mi South 9.2 mph - N/A   Overcast
4:24 PM 59.0 °F 59.0 °F 100% 30.12 in 10.0 mi SSE 9.2 mph 17.3 mph N/A   Overcast
4:39 PM 59.0 °F 59.0 °F 100% 30.12 in 10.0 mi SSE 8.1 mph - N/A   Overcast
4:58 PM 59.0 °F 58.8 °F 99% 30.13 in 10.0 mi South 12.7 mph - N/A   Overcast
5:12 PM 59.0 °F 59.0 °F 100% 30.12 in 10.0 mi SSE 4.6 mph - N/A   Overcast
5:24 PM 59.0 °F 59.0 °F 100% 30.11 in 10.0 mi South 5.8 mph - N/A   Overcast
5:28 PM 59.0 °F 59.0 °F 100% 30.11 in 10.0 mi SE 2.3 mph - N/A   Overcast
5:58 PM 59.2 °F 58.8 °F 99% 30.13 in 10.0 mi SSE 8.1 mph - N/A   Overcast
6:27 PM 59.0 °F 59.0 °F 100% 30.11 in 10.0 mi South 8.1 mph - N/A   Overcast
6:58 PM 58.3 °F 58.1 °F 99% 30.13 in 9.0 mi SSE 4.6 mph - N/A   Overcast
7:02 PM 59.0 °F 57.2 °F 94% 30.11 in 10.0 mi SSE 3.5 mph - N/A   Overcast
7:26 PM 57.2 °F 57.2 °F 100% 30.11 in 9.0 mi SSE 3.5 mph - N/A   Overcast
7:41 PM 57.2 °F 57.2 °F 100% 30.10 in 10.0 mi SSE 8.1 mph - N/A   Overcast
7:54 PM 57.2 °F 57.2 °F 100% 30.10 in 10.0 mi SSE 3.5 mph - N/A   Overcast
7:58 PM 57.7 °F 57.7 °F 100% 30.12 in 10.0 mi SSE 3.5 mph - N/A   Overcast
8:58 PM 58.3 °F 57.9 °F 99% 30.11 in 10.0 mi SSE 4.6 mph - N/A   Overcast
9:05 PM 59.0 °F 59.0 °F 100% 30.08 in 10.0 mi SSE 4.6 mph - N/A   Overcast
9:15 PM 59.0 °F 59.0 °F 100% 30.08 in 10.0 mi South 8.1 mph - N/A   Overcast
9:58 PM 59.2 °F 58.8 °F 99% 30.09 in 10.0 mi South 8.1 mph - N/A   Overcast
10:44 PM 59.0 °F 59.0 °F 100% 30.06 in 10.0 mi SSW 2.3 mph - N/A   Overcast
10:55 PM 59.0 °F 59.0 °F 100% 30.06 in 10.0 mi SW 3.5 mph - N/A   Overcast
10:58 PM 59.0 °F 58.6 °F 99% 30.08 in 10.0 mi SW 3.5 mph - N/A   Overcast
11:41 PM 59.0 °F 59.0 °F 100% 30.05 in 10.0 mi West 2.3 mph - N/A   Overcast
11:58 PM 58.3 °F 58.3 °F 100% 30.07 in 7.0 mi Calm Calm - N/A   Overcast
11:59 PM 59.0 °F 59.0 °F 100% 30.05 in 7.0 mi SE 1.2 mph - N/A   Overcast